Vernal, UT

12:07 AM MST on January 21, 2017 (GMT -0700)
Vernal

Weather History for KVEL - July, 2014

Change the Weather History Date:

Tuesday, July 22, 2014

  Actual Average Record
Temperature  
Mean Temperature 77 °F 73 °F  
Max Temperature 96 °F 88 °F 100 °F (1931)
Min Temperature 58 °F 58 °F 43 °F (1939)
Degree Days  
Heating Degree Days 0 0  
Month to date heating degree days 0 2  
Since 1 June heating degree days 33 74  
Since 1 July heating degree days 0 2  
Cooling Degree Days 12 8  
Month to date cooling degree days 242 154  
Year to date cooling degree days 368 245  
Since 1 June cooling degree days 345 236  
Growing Degree Days 26 (Base 50)    
Moisture  
Dew Point 31 °F    
Average Humidity 25    
Maximum Humidity 43    
Minimum Humidity 7    
Precipitation  
Precipitation 0.00 in 0.02 in 0.30 in (1965)
Month to date precipitation 0.47 0.42  
Year to date precipitation 2.49 4.63  
Sea Level Pressure  
Sea Level Pressure 30.03 in    
Wind  
Wind Speed 5 mph (SSW)    
Max Wind Speed 13 mph    
Max Gust Speed 17 mph    
Visibility 10 miles    
Events      
T = Trace of Precipitation, MM = Missing Value Source: NWS Daily Summary

Daily Weather History Graph

Daily Weather History Graph

Search for Another Location

Airport or City:

Trip Planner

Search our weather history database for the weather conditions in past years. The results will help you decide how hot, cold, wet, or windy it might be!

Date:

Astronomy

Jul. 22, 2014 Rise Set
Actual Time 6:06 AM MDT 8:42 PM MDT
Civil Twilight 5:34 AM MDT 9:13 PM MDT
Nautical Twilight 4:55 AM MDT 9:52 PM MDT
Astronomical Twilight 4:11 AM MDT 10:36 PM MDT
Moon 2:42 AM MDT (7/22) 5:22 PM MDT (7/22)
Length of Visible Light 15h 38m
Length of Day
14h 35m
Waning Crescent, 16% of the Moon is Illuminated
Jul 22
Waning Crescent
Jul 26
New
Aug 3
First Quarter
Aug 10
Full
Aug 17
Last Quarter

Hourly Weather History & Observations

Time (MDT) Temp. Dew Point Humidity Pressure Visibility Wind Dir Wind Speed Gust Speed Precip Events Conditions
12:53 AM 68.0 °F 36.0 °F 31% 29.96 in 10.0 mi Variable 4.6 mph - N/A   Clear
1:53 AM 64.9 °F 35.1 °F 33% 29.98 in 10.0 mi WNW 5.8 mph - N/A   Clear
2:53 AM 63.0 °F 35.1 °F 35% 30.00 in 10.0 mi WNW 6.9 mph - N/A   Clear
3:53 AM 66.0 °F 32.0 °F 28% 30.00 in 10.0 mi Calm Calm - N/A   Clear
4:53 AM 62.1 °F 33.1 °F 34% 30.03 in 10.0 mi WSW 3.5 mph - N/A   Clear
5:53 AM 60.1 °F 33.1 °F 36% 30.06 in 10.0 mi Calm Calm - N/A   Clear
6:53 AM 57.9 °F 36.0 °F 44% 30.09 in 10.0 mi WNW 4.6 mph - N/A   Clear
8:53 AM 71.1 °F 30.9 °F 23% 30.11 in 10.0 mi ESE 4.6 mph - N/A   Clear
9:53 AM 73.9 °F 32.0 °F 21% 30.12 in 10.0 mi SE 3.5 mph - N/A   Clear
11:53 AM 82.9 °F 30.0 °F 15% 30.10 in 10.0 mi East 4.6 mph - N/A   Clear
12:53 PM 86.0 °F 30.9 °F 14% 30.09 in 10.0 mi Calm Calm - N/A   Clear
1:53 PM 89.1 °F 28.9 °F 12% 30.06 in 10.0 mi Variable 5.8 mph - N/A   Clear
2:53 PM 93.0 °F 27.0 °F 9% 30.04 in 10.0 mi SSE 6.9 mph - N/A   Clear
3:53 PM 93.9 °F 26.1 °F 9% 30.01 in 10.0 mi SE 9.2 mph - N/A   Clear
4:53 PM 95.0 °F 21.0 °F 7% 29.99 in 10.0 mi ESE 5.8 mph - N/A   Clear
5:53 PM 95.0 °F 21.9 °F 7% 29.98 in 10.0 mi ESE 6.9 mph - N/A   Clear
6:53 PM 93.9 °F 23.0 °F 8% 29.98 in 10.0 mi SE 4.6 mph - N/A   Clear
8:53 PM 78.1 °F 44.1 °F 30% 29.99 in 10.0 mi West 4.6 mph - N/A   Clear
9:53 PM 77.0 °F 34.0 °F 21% 29.99 in 10.0 mi WNW 6.9 mph - N/A   Clear
10:53 PM 73.0 °F 32.0 °F 22% 30.00 in 10.0 mi WNW 5.8 mph - N/A   Clear
11:53 PM 73.0 °F 28.0 °F 19% 29.99 in 10.0 mi NW 8.1 mph - N/A   Clear